This is the latest recevied weather packets stored in our database for station/object KF4WSW-13. If no packets are shown the sender has not sent any weather packets the latest 1 day(s).
| Time | Temp. | Humidity | Pressure | Rain* | Wind** | Luminosity | Snow |
|---|---|---|---|---|---|---|---|
| 1777979813 | 20° C | 89% | 1013.5 hPa | 0 mm | 2.68 m/s, 75° | 22 W/m² | - |
| 1777979509 | 20° C | 89% | 1013.2 hPa | 0 mm | 2.24 m/s, 93° | 16 W/m² | - |
| 1777979206 | 20° C | 89% | 1013.2 hPa | 0 mm | 2.68 m/s, 95° | 13 W/m² | - |
| 1777978903 | 20° C | 89% | 1013 hPa | 0 mm | 2.68 m/s, 105° | 10 W/m² | - |
| 1777978600 | 20° C | 88% | 1012.9 hPa | 0 mm | 2.24 m/s, 134° | 7 W/m² | - |
| 1777978295 | 19.44° C | 89% | 1013 hPa | 0 mm | 2.24 m/s, 79° | 5 W/m² | - |
| 1777977992 | 20° C | 88% | 1012.8 hPa | 0 mm | 2.24 m/s, 97° | 2 W/m² | - |
| 1777977690 | 20° C | 88% | 1012.9 hPa | 0 mm | 1.34 m/s, 90° | 1 W/m² | - |
| 1777977386 | 20° C | 88% | 1012.9 hPa | 0 mm | 2.24 m/s, 99° | 0 W/m² | - |
| 1777977084 | 19.44° C | 88% | 1013.1 hPa | 0 mm | 1.79 m/s, 126° | 0 W/m² | - |
| 1777976781 | 20° C | 88% | 1012.8 hPa | 0 mm | 1.34 m/s, 101° | 0 W/m² | - |
| 1777976479 | 20° C | 88% | 1012.8 hPa | 0 mm | 2.24 m/s, 157° | 0 W/m² | - |
| 1777976177 | 20° C | 88% | 1012.7 hPa | 0 mm | 1.79 m/s, 156° | 0 W/m² | - |
| 1777975873 | 20° C | 88% | 1012.8 hPa | 0 mm | 2.24 m/s, 79° | 0 W/m² | - |
| 1777975570 | 20° C | 88% | 1012.8 hPa | 0 mm | 2.24 m/s, 94° | 0 W/m² | - |
| 1777975267 | 19.44° C | 88% | 1012.6 hPa | 0 mm | 2.68 m/s, 90° | 0 W/m² | - |
| 1777974963 | 19.44° C | 88% | 1012.7 hPa | 0 mm | 2.68 m/s, 78° | 0 W/m² | - |
| 1777974659 | 20° C | 88% | 1012.6 hPa | 0 mm | 2.68 m/s, 94° | 0 W/m² | - |
| 1777974356 | 20° C | 87% | 1012.7 hPa | 0 mm | 2.24 m/s, 110° | 0 W/m² | - |
| 1777974052 | 20° C | 87% | 1012.5 hPa | 0 mm | 2.24 m/s, 96° | 0 W/m² | - |
| 1777973749 | 20° C | 87% | 1012.8 hPa | 0 mm | 2.24 m/s, 94° | 0 W/m² | - |
| 1777973446 | 20° C | 87% | 1012.9 hPa | 0 mm | 2.24 m/s, 83° | 0 W/m² | - |
| 1777973144 | 20° C | 87% | 1012.7 hPa | 0 mm | 2.24 m/s, 88° | 0 W/m² | - |
| 1777972842 | 20° C | 87% | 1012.8 hPa | 0 mm | 2.24 m/s, 92° | 0 W/m² | - |
| 1777972538 | 20° C | 86% | 1012.7 hPa | 0 mm | 2.24 m/s, 106° | 0 W/m² | - |
* Rain latest hour (hover to see other rain measurements)
** Current wind speed in m/s (hover to see current wind gust speed)